Darstellungsparameter: Aktuell verwendete Einstellungen:
Skalierung der Graphiken ... ?
xyx+y,   Skalierungsfaktor:      Skalierung: Modus: x, Faktor: 1
Darstellungszeitraum ... ?
Vom - - bis: - -   Zeitraum: 27.06.2014 - 27.06.2014
Min/Max/Avg-Anzeige ... ?
Zeige MMA aktuell
Zeige MMA Monat
Zeige MMA alles
Zeige --A aktuell
Zeige --A Monat
Zeige --A alles
Keine MMA-Anzeige
MMA:
Keine MMA-Graphiken
MMA-Basis: 27.06.2014 - 27.06.2014
Quicknavigation für Darstellung... ?
Tage:      1T, 2T, 3T, 5T -1T -2T -3T -5T +1T +2T +3T +5T
Wochen: 1W, 2W, 3W -1W -2W -3W +1W +2W +3W
Monate: 1M, 3M, 6M -1M -3M -6M +1M +3M +6M
Jahre:    1J, 3J, 5J, 10J -1J -3J -5J -10J +1J +3J +5J +10J
Nutze für die Darstellung ... ?
Originaldaten oder Mittelwerte auf ...
Stundenbasis Tagesbasis Wochenbasis
Monatsbasis Jahresbasis      Datenbasis: Original-Daten
Darstellen als:
Statistik (Auto) Statistik J:M      Darstellung:
Zur Graphik,    zurück zur Übersicht aller Sensoren.
 
Tabellarische Datenbersicht: ?
 
Sensor: Nr:Datum:Temp:Abs-Feuchte:Windchill:Wind:
Aussen-T/F 1 27-06-2014 00:00:00 14.3 C 8.48 g/m*3 14.3 C 0 km/h
2 27-06-2014 00:05:00 14.2 C 8.43 g/m*3 14.2 C 0 km/h
3 27-06-2014 00:10:00 14.1 C 8.5 g/m*3 14.1 C 0 km/h
4 27-06-2014 00:15:00 13.9 C 8.39 g/m*3 13.9 C 0 km/h
5 27-06-2014 00:20:00 13.8 C 8.46 g/m*3 13.8 C 0 km/h
6 27-06-2014 00:25:00 13.7 C 8.53 g/m*3 13.7 C 0 km/h
7 27-06-2014 00:30:00 13.6 C 8.59 g/m*3 13.6 C 0 km/h
8 27-06-2014 00:35:00 13.5 C 8.54 g/m*3 13.5 C 0 km/h
9 27-06-2014 00:40:00 13.4 C 8.49 g/m*3 13.4 C 0 km/h
10 27-06-2014 00:45:00 13.3 C 8.55 g/m*3 13.3 C 0 km/h
11 27-06-2014 00:50:00 13.2 C 8.61 g/m*3 13.2 C 0 km/h
12 27-06-2014 00:55:00 13.2 C 8.61 g/m*3 13.2 C 0 km/h
13 27-06-2014 01:00:00 13.2 C 8.61 g/m*3 13.2 C 0 km/h
14 27-06-2014 01:05:00 13.1 C 8.67 g/m*3 13.1 C 0 km/h
15 27-06-2014 01:10:00 13 C 8.62 g/m*3 13 C 0 km/h
16 27-06-2014 01:15:00 12.9 C 8.57 g/m*3 12.9 C 0 km/h
17 27-06-2014 01:20:00 12.8 C 8.51 g/m*3 12.8 C 0 km/h
18 27-06-2014 01:25:00 12.7 C 8.57 g/m*3 12.7 C 0 km/h
19 27-06-2014 01:30:00 12.6 C 8.52 g/m*3 12.6 C 0 km/h
20 27-06-2014 01:35:00 12.5 C 8.47 g/m*3 12.5 C 0 km/h
21 27-06-2014 01:40:00 12.4 C 8.52 g/m*3 12.4 C 0 km/h
22 27-06-2014 01:45:00 12.4 C 8.63 g/m*3 12.4 C 0 km/h
23 27-06-2014 01:50:00 12.3 C 8.58 g/m*3 12.3 C 0 km/h
24 27-06-2014 01:55:00 12.3 C 8.58 g/m*3 12.3 C 0 km/h
25 27-06-2014 02:00:00 12.2 C 8.52 g/m*3 12.2 C 0 km/h
Sensor: Nr:Datum:Temp:Abs-Feuchte:Windchill:Wind:
Aussen-T/F 26 27-06-2014 02:05:00 12.1 C 8.47 g/m*3 12.1 C 0 km/h
27 27-06-2014 02:10:00 11.9 C 8.37 g/m*3 11.9 C 0 km/h
28 27-06-2014 02:15:00 11.8 C 8.42 g/m*3 11.8 C 0 km/h
29 27-06-2014 02:20:00 11.8 C 8.42 g/m*3 11.8 C 0 km/h
30 27-06-2014 02:25:00 11.7 C 8.47 g/m*3 11.7 C 0 km/h
31 27-06-2014 02:30:00 11.6 C 8.42 g/m*3 11.6 C 0 km/h
32 27-06-2014 02:35:00 11.6 C 8.42 g/m*3 11.6 C 0 km/h
33 27-06-2014 02:40:00 11.6 C 8.42 g/m*3 11.6 C 0 km/h
34 27-06-2014 02:45:00 11.6 C 8.42 g/m*3 11.6 C 0 km/h
35 27-06-2014 02:50:00 11.6 C 8.42 g/m*3 11.6 C 0 km/h
36 27-06-2014 02:55:00 11.5 C 8.37 g/m*3 11.5 C 0 km/h
37 27-06-2014 03:00:00 11.4 C 8.31 g/m*3 11.4 C 0 km/h
38 27-06-2014 03:05:00 11.4 C 8.42 g/m*3 11.4 C 0 km/h
39 27-06-2014 03:10:00 11.4 C 8.42 g/m*3 11.4 C 0 km/h
40 27-06-2014 03:15:00 11.3 C 8.36 g/m*3 11.3 C 0 km/h
41 27-06-2014 03:20:00 11.2 C 8.31 g/m*3 11.2 C 0 km/h
42 27-06-2014 03:25:00 11.2 C 8.41 g/m*3 11.2 C 0 km/h
43 27-06-2014 03:30:00 11.1 C 8.36 g/m*3 11.1 C 0 km/h
44 27-06-2014 03:35:00 11.1 C 8.36 g/m*3 11.1 C 0 km/h
45 27-06-2014 03:40:00 11.1 C 8.36 g/m*3 11.1 C 0 km/h
46 27-06-2014 03:45:00 11 C 8.31 g/m*3 11 C 0 km/h
47 27-06-2014 03:50:00 10.9 C 8.36 g/m*3 10.9 C 0 km/h
48 27-06-2014 03:55:00 10.8 C 8.3 g/m*3 10.8 C 0 km/h
49 27-06-2014 04:00:00 10.8 C 8.3 g/m*3 10.8 C 0 km/h
50 27-06-2014 04:05:00 10.7 C 8.25 g/m*3 10.7 C 0 km/h
Sensor: Nr:Datum:Temp:Abs-Feuchte:Windchill:Wind:
Aussen-T/F 51 27-06-2014 04:10:00 10.6 C 8.3 g/m*3 10.6 C 0 km/h
52 27-06-2014 04:15:00 10.6 C 8.3 g/m*3 10.6 C 0 km/h
53 27-06-2014 04:20:00 10.5 C 8.24 g/m*3 10.5 C 0 km/h
54 27-06-2014 04:25:00 10.4 C 8.19 g/m*3 10.4 C 0 km/h
55 27-06-2014 04:30:00 10.4 C 8.29 g/m*3 10.4 C 0 km/h
56 27-06-2014 04:35:00 10.3 C 8.14 g/m*3 10.3 C 0 km/h
57 27-06-2014 04:40:00 10.3 C 8.24 g/m*3 10.3 C 0 km/h
58 27-06-2014 04:45:00 10.2 C 8.18 g/m*3 10.2 C 0 km/h
59 27-06-2014 04:50:00 10.2 C 8.18 g/m*3 10.2 C 0 km/h
60 27-06-2014 04:55:00 10.2 C 8.28 g/m*3 10.2 C 0 km/h
61 27-06-2014 05:00:00 10.2 C 8.28 g/m*3 10.2 C 0 km/h
62 27-06-2014 05:05:00 10.1 C 8.13 g/m*3 10.1 C 0 km/h
63 27-06-2014 05:10:00 10.1 C 8.23 g/m*3 10.1 C 0 km/h
64 27-06-2014 05:15:00 10.1 C 8.23 g/m*3 10.1 C 0 km/h
65 27-06-2014 05:20:00 10 C 8.17 g/m*3 10 C 0 km/h
66 27-06-2014 05:25:00 9.9 C 8.12 g/m*3 9.9 C 0 km/h
67 27-06-2014 05:30:00 9.9 C 8.22 g/m*3 9.9 C 0 km/h
68 27-06-2014 05:35:00 10 C 8.27 g/m*3 10 C 0 km/h
69 27-06-2014 05:40:00 10.1 C 8.32 g/m*3 10.1 C 0 km/h
70 27-06-2014 05:45:00 10.2 C 8.37 g/m*3 10.2 C 0 km/h
71 27-06-2014 05:50:00 10.3 C 8.43 g/m*3 10.3 C 0 km/h
72 27-06-2014 05:55:00 10.3 C 8.33 g/m*3 10.3 C 0 km/h
73 27-06-2014 06:00:00 10.3 C 8.33 g/m*3 10.3 C 0 km/h
74 27-06-2014 06:05:00 10.2 C 8.28 g/m*3 10.2 C 0 km/h
75 27-06-2014 06:10:00 10.2 C 8.28 g/m*3 10.2 C 0 km/h
Sensor: Nr:Datum:Temp:Abs-Feuchte:Windchill:Wind:
Aussen-T/F 76 27-06-2014 06:15:00 10.2 C 8.37 g/m*3 10.2 C 0 km/h
77 27-06-2014 06:20:00 10.1 C 8.32 g/m*3 10.1 C 0 km/h
78 27-06-2014 06:25:00 10.1 C 8.32 g/m*3 10.1 C 0 km/h
79 27-06-2014 06:30:00 10.2 C 8.37 g/m*3 10.2 C 0 km/h
80 27-06-2014 06:35:00 10.2 C 8.37 g/m*3 10.2 C 0 km/h
81 27-06-2014 06:40:00 10.3 C 8.43 g/m*3 10.3 C 0 km/h
82 27-06-2014 06:45:00 10.4 C 8.48 g/m*3 10.4 C 0 km/h
83 27-06-2014 06:50:00 10.4 C 8.48 g/m*3 10.4 C 0 km/h
84 27-06-2014 06:55:00 10.6 C 8.59 g/m*3 10.6 C 0 km/h
85 27-06-2014 07:00:00 10.7 C 8.64 g/m*3 10.7 C 0 km/h
86 27-06-2014 07:05:00 10.8 C 8.7 g/m*3 10.8 C 3.2 km/h
87 27-06-2014 07:10:00 11 C 8.61 g/m*3 11 C 1.6 km/h
88 27-06-2014 07:15:00 11.2 C 8.82 g/m*3 11.2 C 0 km/h
89 27-06-2014 07:20:00 11.3 C 8.77 g/m*3 11.3 C 0 km/h
90 27-06-2014 07:25:00 11.4 C 8.83 g/m*3 11.4 C 0 km/h
91 27-06-2014 07:30:00 11.5 C 8.78 g/m*3 11.5 C 1.6 km/h
92 27-06-2014 07:35:00 11.6 C 8.83 g/m*3 11.6 C 0 km/h
93 27-06-2014 07:40:00 11.7 C 8.79 g/m*3 11.7 C 0 km/h
94 27-06-2014 07:45:00 11.7 C 8.89 g/m*3 11.7 C 0 km/h
95 27-06-2014 07:50:00 11.7 C 8.89 g/m*3 11.7 C 1.6 km/h
96 27-06-2014 07:55:00 12.2 C 8.96 g/m*3 12.2 C 1.6 km/h
97 27-06-2014 08:00:00 12.3 C 8.9 g/m*3 12.3 C 3.2 km/h
98 27-06-2014 08:05:00 12.4 C 8.85 g/m*3 12.4 C 1.6 km/h
99 27-06-2014 08:10:00 12.7 C 9.13 g/m*3 12.7 C 0 km/h
100 27-06-2014 08:15:00 13.1 C 9.13 g/m*3 13.1 C 1.6 km/h
Sensor: Nr:Datum:Temp:Abs-Feuchte:Windchill:Wind:
Aussen-T/F 101 27-06-2014 08:20:00 13.5 C 9.24 g/m*3 13.5 C 1.6 km/h
102 27-06-2014 08:25:00 13.8 C 9.06 g/m*3 13.8 C 0 km/h
103 27-06-2014 08:30:00 14.3 C 8.97 g/m*3 14.3 C 0 km/h
104 27-06-2014 08:35:00 14.7 C 9.19 g/m*3 14.7 C 1.6 km/h
105 27-06-2014 08:40:00 15.2 C 9.35 g/m*3 15.2 C 0 km/h
106 27-06-2014 08:45:00 15.7 C 9.5 g/m*3 15.7 C 1.6 km/h
107 27-06-2014 08:50:00 15.9 C 9.34 g/m*3 15.9 C 0 km/h
108 27-06-2014 08:55:00 16.1 C 9.87 g/m*3 16.1 C 0 km/h
109 27-06-2014 09:00:00 15.9 C 9.75 g/m*3 15.9 C 0 km/h
110 27-06-2014 09:05:00 15.8 C 9.96 g/m*3 15.8 C 0 km/h
111 27-06-2014 09:10:00 15.7 C 10.03 g/m*3 15.7 C 0 km/h
112 27-06-2014 09:15:00 15.7 C 9.77 g/m*3 15.7 C 1.6 km/h
113 27-06-2014 09:20:00 15.8 C 9.56 g/m*3 15.8 C 3.2 km/h
114 27-06-2014 09:25:00 15.9 C 9.75 g/m*3 15.9 C 3.2 km/h
115 27-06-2014 09:30:00 16.1 C 9.73 g/m*3 16.1 C 1.6 km/h
116 27-06-2014 09:35:00 16.2 C 9.65 g/m*3 16.2 C 1.6 km/h
117 27-06-2014 09:40:00 16.4 C 9.77 g/m*3 16.4 C 0 km/h
118 27-06-2014 09:45:00 16.6 C 9.89 g/m*3 16.6 C 0 km/h
119 27-06-2014 09:50:00 16.8 C 9.87 g/m*3 16.8 C 1.6 km/h
120 27-06-2014 09:55:00 16.9 C 10.07 g/m*3 16.9 C 0 km/h
121 27-06-2014 10:00:00 17.1 C 10.34 g/m*3 17.1 C 0 km/h
122 27-06-2014 10:05:00 17.2 C 9.23 g/m*3 17.2 C 1.6 km/h
123 27-06-2014 10:10:00 17.3 C 9.43 g/m*3 17.3 C 3.2 km/h
124 27-06-2014 10:15:00 17.4 C 9.48 g/m*3 17.4 C 0 km/h
125 27-06-2014 10:20:00 17.7 C 9.81 g/m*3 17.7 C 1.6 km/h
Sensor: Nr:Datum:Temp:Abs-Feuchte:Windchill:Wind:
Aussen-T/F 126 27-06-2014 10:25:00 17.9 C 9.92 g/m*3 17.9 C 3.2 km/h
127 27-06-2014 10:30:00 18.1 C 10.04 g/m*3 18.1 C 1.6 km/h
128 27-06-2014 10:35:00 18.2 C 9.48 g/m*3 18.2 C 1.6 km/h
129 27-06-2014 10:40:00 18.3 C 10.01 g/m*3 18.3 C 0 km/h
130 27-06-2014 10:45:00 18.8 C 10.31 g/m*3 18.8 C 3.2 km/h
131 27-06-2014 10:50:00 19.1 C 10 g/m*3 19.1 C 3.2 km/h
132 27-06-2014 10:55:00 19.3 C 10.28 g/m*3 19.3 C 1.6 km/h
133 27-06-2014 11:00:00 19.5 C 9.9 g/m*3 19.5 C 3.2 km/h
134 27-06-2014 11:05:00 19.7 C 9.68 g/m*3 19.7 C 3.2 km/h
135 27-06-2014 11:10:00 19.8 C 9.91 g/m*3 19.8 C 4.8 km/h
136 27-06-2014 11:15:00 19.9 C 9.62 g/m*3 19.9 C 4.8 km/h
137 27-06-2014 11:20:00 20.1 C 9.91 g/m*3 20.1 C 4.8 km/h
138 27-06-2014 11:25:00 20.2 C 9.62 g/m*3 20.2 C 6.4 km/h
139 27-06-2014 11:30:00 20.3 C 9.5 g/m*3 20.3 C 6.4 km/h
140 27-06-2014 11:35:00 20.3 C 9.5 g/m*3 20.3 C 4.8 km/h
141 27-06-2014 11:40:00 20.4 C 9.73 g/m*3 20.4 C 9.7 km/h
142 27-06-2014 11:45:00 20.6 C 9.31 g/m*3 20.6 C 4.8 km/h
143 27-06-2014 11:50:00 20.7 C 9.36 g/m*3 20.7 C 8.1 km/h
144 27-06-2014 11:55:00 21 C 9.16 g/m*3 21 C 8.1 km/h
145 27-06-2014 12:00:00 21.2 C 9.08 g/m*3 21.2 C 9.7 km/h
146 27-06-2014 12:05:00 21.5 C 9.05 g/m*3 21.5 C 9.7 km/h
147 27-06-2014 12:10:00 21.7 C 9.54 g/m*3 21.7 C 8.1 km/h
148 27-06-2014 12:15:00 21.8 C 9.02 g/m*3 21.8 C 12.9 km/h
149 27-06-2014 12:20:00 21.8 C 8.83 g/m*3 21.8 C 6.4 km/h
150 27-06-2014 12:25:00 21.8 C 8.83 g/m*3 21.8 C 11.3 km/h
Sensor: Nr:Datum:Temp:Abs-Feuchte:Windchill:Wind:
Aussen-T/F 151 27-06-2014 12:30:00 21.7 C 8.77 g/m*3 21.7 C 8.1 km/h
152 27-06-2014 12:35:00 21.6 C 8.72 g/m*3 21.6 C 8.1 km/h
153 27-06-2014 12:40:00 21.6 C 8.72 g/m*3 21.6 C 8.1 km/h
154 27-06-2014 12:45:00 21.7 C 8.58 g/m*3 21.7 C 6.4 km/h
155 27-06-2014 12:50:00 22 C 8.73 g/m*3 22 C 6.4 km/h
156 27-06-2014 12:55:00 22.6 C 8.64 g/m*3 22.6 C 11.3 km/h
157 27-06-2014 13:00:00 22.8 C 8.53 g/m*3 22.8 C 8.1 km/h
158 27-06-2014 13:05:00 22.9 C 8.38 g/m*3 22.9 C 8.1 km/h
159 27-06-2014 13:10:00 22.9 C 8.79 g/m*3 22.9 C 6.4 km/h
160 27-06-2014 13:15:00 23.1 C 8.48 g/m*3 23.1 C 8.1 km/h
161 27-06-2014 13:20:00 23.2 C 8.73 g/m*3 23.2 C 8.1 km/h
162 27-06-2014 13:25:00 23.5 C 8.46 g/m*3 23.5 C 9.7 km/h
163 27-06-2014 13:30:00 23.8 C 8.82 g/m*3 23.8 C 8.1 km/h
164 27-06-2014 13:35:00 24.2 C 9.02 g/m*3 24.2 C 9.7 km/h
165 27-06-2014 13:40:00 24.4 C 8.23 g/m*3 24.4 C 9.7 km/h
166 27-06-2014 13:45:00 24.7 C 8.6 g/m*3 24.7 C 17.7 km/h
167 27-06-2014 13:50:00 25 C 8.75 g/m*3 25 C 17.7 km/h
168 27-06-2014 13:55:00 25.4 C 8.48 g/m*3 25.4 C 12.9 km/h
169 27-06-2014 14:00:00 25.8 C 8.67 g/m*3 25.8 C 16.1 km/h
170 27-06-2014 14:05:00 25.8 C 9.15 g/m*3 25.8 C 17.7 km/h
171 27-06-2014 14:10:00 25.7 C 8.86 g/m*3 25.7 C 17.7 km/h
172 27-06-2014 14:15:00 25.1 C 9.03 g/m*3 25.1 C 14.5 km/h
173 27-06-2014 14:20:00 24.9 C 9.16 g/m*3 24.9 C 8.1 km/h
174 27-06-2014 14:25:00 25.3 C 9.36 g/m*3 25.3 C 12.9 km/h
175 27-06-2014 14:30:00 25.8 C 9.15 g/m*3 25.8 C 16.1 km/h
Sensor: Nr:Datum:Temp:Abs-Feuchte:Windchill:Wind:
Aussen-T/F 176 27-06-2014 14:35:00 25.9 C 8.96 g/m*3 25.9 C 14.5 km/h
177 27-06-2014 14:40:00 25.8 C 9.15 g/m*3 25.8 C 14.5 km/h
178 27-06-2014 14:45:00 25.6 C 9.05 g/m*3 25.6 C 19.3 km/h
179 27-06-2014 14:50:00 25.3 C 9.13 g/m*3 25.3 C 11.3 km/h
180 27-06-2014 14:55:00 25.1 C 9.03 g/m*3 25.1 C 4.8 km/h
181 27-06-2014 15:00:00 25.1 C 9.26 g/m*3 25.1 C 11.3 km/h
182 27-06-2014 15:05:00 25.2 C 9.08 g/m*3 25.2 C 9.7 km/h
183 27-06-2014 15:10:00 25.4 C 8.95 g/m*3 25.4 C 8.1 km/h
184 27-06-2014 15:15:00 25.5 C 9 g/m*3 25.5 C 14.5 km/h
185 27-06-2014 15:20:00 25.4 C 8.95 g/m*3 25.4 C 11.3 km/h
186 27-06-2014 15:25:00 25.3 C 9.13 g/m*3 25.3 C 12.9 km/h
187 27-06-2014 15:30:00 25.4 C 9.18 g/m*3 25.4 C 6.4 km/h
188 27-06-2014 15:35:00 25.6 C 9.05 g/m*3 25.6 C 11.3 km/h
189 27-06-2014 15:40:00 25.6 C 8.81 g/m*3 25.6 C 9.7 km/h
190 27-06-2014 15:45:00 25.9 C 9.2 g/m*3 25.9 C 11.3 km/h
191 27-06-2014 15:50:00 26.4 C 8.96 g/m*3 26.4 C 9.7 km/h
192 27-06-2014 15:55:00 26.8 C 9.16 g/m*3 26.8 C 12.9 km/h
193 27-06-2014 16:00:00 27.1 C 9.32 g/m*3 27.1 C 9.7 km/h
194 27-06-2014 16:05:00 27.2 C 9.11 g/m*3 27.2 C 12.9 km/h
195 27-06-2014 16:10:00 27.1 C 9.06 g/m*3 27.1 C 12.9 km/h
196 27-06-2014 16:15:00 27 C 8.75 g/m*3 27 C 12.9 km/h
197 27-06-2014 16:20:00 27.1 C 9.06 g/m*3 27.1 C 12.9 km/h
198 27-06-2014 16:25:00 27.1 C 9.06 g/m*3 27.1 C 4.8 km/h
199 27-06-2014 16:30:00 27 C 9.01 g/m*3 27 C 11.3 km/h
200 27-06-2014 16:35:00 26.8 C 8.91 g/m*3 26.8 C 11.3 km/h
Sensor: Nr:Datum:Temp:Abs-Feuchte:Windchill:Wind:
Aussen-T/F 201 27-06-2014 16:40:00 26.6 C 9.31 g/m*3 26.6 C 11.3 km/h
202 27-06-2014 16:45:00 26.4 C 8.71 g/m*3 26.4 C 12.9 km/h
203 27-06-2014 16:50:00 26.2 C 8.86 g/m*3 26.2 C 14.5 km/h
204 27-06-2014 16:55:00 25.9 C 9.2 g/m*3 25.9 C 6.4 km/h
205 27-06-2014 17:00:00 25.8 C 8.91 g/m*3 25.8 C 8.1 km/h
206 27-06-2014 17:05:00 25.5 C 9.23 g/m*3 25.5 C 3.2 km/h
207 27-06-2014 17:10:00 25.1 C 9.03 g/m*3 25.1 C 11.3 km/h
208 27-06-2014 17:15:00 24.8 C 9.1 g/m*3 24.8 C 4.8 km/h
209 27-06-2014 17:20:00 24.4 C 9.12 g/m*3 24.4 C 16.1 km/h
210 27-06-2014 17:25:00 24.1 C 9.63 g/m*3 24.1 C 17.7 km/h
211 27-06-2014 17:30:00 23.7 C 9.84 g/m*3 23.7 C 16.1 km/h
212 27-06-2014 17:35:00 23.2 C 9.98 g/m*3 23.2 C 12.9 km/h
213 27-06-2014 17:40:00 23 C 10.28 g/m*3 23 C 11.3 km/h
214 27-06-2014 17:45:00 22.7 C 10.51 g/m*3 22.7 C 16.1 km/h
215 27-06-2014 17:50:00 22.4 C 10.53 g/m*3 22.4 C 12.9 km/h
216 27-06-2014 17:55:00 22.3 C 10.47 g/m*3 22.3 C 11.3 km/h
217 27-06-2014 18:00:00 22.2 C 10.41 g/m*3 22.2 C 14.5 km/h
218 27-06-2014 18:05:00 22.2 C 10.41 g/m*3 22.2 C 8.1 km/h
219 27-06-2014 18:10:00 22.2 C 10.41 g/m*3 22.2 C 6.4 km/h
220 27-06-2014 18:15:00 22.2 C 10.41 g/m*3 22.2 C 8.1 km/h
221 27-06-2014 18:20:00 22.2 C 10.41 g/m*3 22.2 C 9.7 km/h
222 27-06-2014 18:25:00 22.2 C 10.6 g/m*3 22.2 C 8.1 km/h
223 27-06-2014 18:30:00 22.2 C 10.41 g/m*3 22.2 C 9.7 km/h
224 27-06-2014 18:35:00 22.2 C 10.6 g/m*3 22.2 C 8.1 km/h
225 27-06-2014 18:40:00 22.2 C 10.6 g/m*3 22.2 C 6.4 km/h
Sensor: Nr:Datum:Temp:Abs-Feuchte:Windchill:Wind:
Aussen-T/F 226 27-06-2014 18:45:00 22.2 C 10.6 g/m*3 22.2 C 3.2 km/h
227 27-06-2014 18:50:00 22.1 C 10.54 g/m*3 22.1 C 3.2 km/h
228 27-06-2014 18:55:00 22 C 11.65 g/m*3 22 C 6.4 km/h
229 27-06-2014 19:00:00 21.6 C 11.76 g/m*3 21.6 C 4.8 km/h
230 27-06-2014 19:05:00 21.2 C 11.86 g/m*3 21.2 C 4.8 km/h
231 27-06-2014 19:10:00 20.9 C 11.84 g/m*3 20.9 C 6.4 km/h
232 27-06-2014 19:15:00 20.7 C 11.88 g/m*3 20.7 C 4.8 km/h
233 27-06-2014 19:20:00 20.6 C 11.99 g/m*3 20.6 C 4.8 km/h
234 27-06-2014 19:25:00 20.6 C 11.99 g/m*3 20.6 C 4.8 km/h
235 27-06-2014 19:30:00 20.5 C 11.92 g/m*3 20.5 C 3.2 km/h
236 27-06-2014 19:35:00 20.4 C 12.03 g/m*3 20.4 C 1.6 km/h
237 27-06-2014 19:40:00 20.4 C 12.21 g/m*3 20.4 C 1.6 km/h
238 27-06-2014 19:45:00 20.3 C 11.96 g/m*3 20.3 C 0 km/h
239 27-06-2014 19:50:00 20.4 C 12.03 g/m*3 20.4 C 4.8 km/h
240 27-06-2014 19:55:00 20.5 C 12.1 g/m*3 20.5 C 3.2 km/h
241 27-06-2014 20:00:00 20.6 C 12.17 g/m*3 20.6 C 0 km/h
242 27-06-2014 20:05:00 20.5 C 12.1 g/m*3 20.5 C 3.2 km/h
243 27-06-2014 20:10:00 20.4 C 12.03 g/m*3 20.4 C 1.6 km/h
244 27-06-2014 20:15:00 20.3 C 12.31 g/m*3 20.3 C 0 km/h
245 27-06-2014 20:20:00 20.2 C 12.41 g/m*3 20.2 C 0 km/h
246 27-06-2014 20:25:00 20 C 12.44 g/m*3 20 C 0 km/h
247 27-06-2014 20:30:00 19.8 C 12.47 g/m*3 19.8 C 0 km/h
248 27-06-2014 20:35:00 19.7 C 12.4 g/m*3 19.7 C 0 km/h
249 27-06-2014 20:40:00 19.6 C 12.49 g/m*3 19.6 C 0 km/h
250 27-06-2014 20:45:00 19.5 C 12.42 g/m*3 19.5 C 0 km/h
Sensor: Nr:Datum:Temp:Abs-Feuchte:Windchill:Wind:
Aussen-T/F 251 27-06-2014 20:50:00 19.4 C 12.51 g/m*3 19.4 C 0 km/h
252 27-06-2014 20:55:00 19.2 C 12.37 g/m*3 19.2 C 0 km/h
253 27-06-2014 21:00:00 19 C 12.39 g/m*3 19 C 0 km/h
254 27-06-2014 21:05:00 18.8 C 12.24 g/m*3 18.8 C 0 km/h
255 27-06-2014 21:10:00 18.8 C 12.24 g/m*3 18.8 C 0 km/h
256 27-06-2014 21:15:00 18.7 C 12.17 g/m*3 18.7 C 0 km/h
257 27-06-2014 21:20:00 18.6 C 12.1 g/m*3 18.6 C 0 km/h
258 27-06-2014 21:25:00 18.5 C 12.02 g/m*3 18.5 C 0 km/h
259 27-06-2014 21:30:00 18.4 C 12.11 g/m*3 18.4 C 0 km/h
260 27-06-2014 21:35:00 18.3 C 12.04 g/m*3 18.3 C 0 km/h
261 27-06-2014 21:40:00 18.3 C 12.2 g/m*3 18.3 C 0 km/h
262 27-06-2014 21:45:00 18.2 C 12.59 g/m*3 18.2 C 0 km/h
263 27-06-2014 21:50:00 17.9 C 12.83 g/m*3 17.9 C 0 km/h
264 27-06-2014 21:55:00 17.7 C 12.82 g/m*3 17.7 C 1.6 km/h
265 27-06-2014 22:00:00 17.4 C 12.89 g/m*3 17.4 C 0 km/h
266 27-06-2014 22:05:00 17.2 C 12.74 g/m*3 17.2 C 0 km/h
267 27-06-2014 22:10:00 16.9 C 12.51 g/m*3 16.9 C 0 km/h
268 27-06-2014 22:15:00 16.8 C 12.44 g/m*3 16.8 C 1.6 km/h
269 27-06-2014 22:20:00 16.6 C 12.29 g/m*3 16.6 C 1.6 km/h
270 27-06-2014 22:25:00 16.5 C 12.22 g/m*3 16.5 C 1.6 km/h
271 27-06-2014 22:30:00 16.5 C 12.22 g/m*3 16.5 C 1.6 km/h
272 27-06-2014 22:35:00 16.2 C 12 g/m*3 16.2 C 0 km/h
273 27-06-2014 22:40:00 16.2 C 12 g/m*3 16.2 C 0 km/h
274 27-06-2014 22:45:00 16.1 C 12.06 g/m*3 16.1 C 0 km/h
275 27-06-2014 22:50:00 16 C 11.99 g/m*3 16 C 0 km/h
Sensor: Nr:Datum:Temp:Abs-Feuchte:Windchill:Wind:
Aussen-T/F 276 27-06-2014 22:55:00 15.9 C 11.92 g/m*3 15.9 C 0 km/h
277 27-06-2014 23:00:00 15.9 C 12.05 g/m*3 15.9 C 1.6 km/h
278 27-06-2014 23:05:00 15.8 C 11.98 g/m*3 15.8 C 0 km/h
279 27-06-2014 23:10:00 15.8 C 11.98 g/m*3 15.8 C 0 km/h
280 27-06-2014 23:15:00 15.7 C 11.91 g/m*3 15.7 C 0 km/h
281 27-06-2014 23:20:00 15.7 C 11.91 g/m*3 15.7 C 0 km/h
282 27-06-2014 23:25:00 15.7 C 11.91 g/m*3 15.7 C 0 km/h
283 27-06-2014 23:30:00 15.7 C 11.91 g/m*3 15.7 C 0 km/h
284 27-06-2014 23:35:00 15.6 C 11.84 g/m*3 15.6 C 0 km/h
285 27-06-2014 23:40:00 15.5 C 11.9 g/m*3 15.5 C 0 km/h
286 27-06-2014 23:45:00 15.7 C 12.04 g/m*3 15.7 C 12.9 km/h
287 27-06-2014 23:50:00 16.2 C 12 g/m*3 16.2 C 9.7 km/h
288 27-06-2014 23:55:00 16.6 C 12.15 g/m*3 16.6 C 8.1 km/h

Legende:
   Min
   Max


Maximal/Minimal-Werte vom 27.06.2014 - 27.06.2014

Sensor Min Max Avg
Temp
(Aussen-T/F)
9.9 °C
27-06-2014  05:25:00
27.2 °C
27-06-2014  16:05:00
17.54 °C
Abs-Feuchte
(Aussen-T/F)
8.12 g/m*3
27-06-2014  05:25:00
12.89 g/m*3
27-06-2014  22:00:00
9.63 g/m*3
Windchill
(Aussen-T/F)
9.9 C
27-06-2014  05:25:00
27.2 C
27-06-2014  16:05:00
17.48 C

Die Daten stammen von einer Davis Vantage Pro 2 Wetter-Station und werden unter Linux mit der Software wview2wettercgi und aufbereitet. Alle Angaben erfolgen ohne Gewähr für ihre Vollständigkeit oder Richtigkeit.
Kontakt: Rainer Krienke krienke@uni-koblenz.de . Meine Webseiten an der Uni Koblenz oder privat.
Version: $Revision: 0.78 $